TimeMDT,TemperatureF,Dew PointF,Humidity,Sea Level PressureIn,VisibilityMPH,Wind Direction,Wind SpeedMPH,Gust SpeedMPH,PrecipitationIn,Events,Conditions,WindDirDegrees,DateUTC
12:53 AM,39.9,37.9,93,29.84,10.0,Calm,Calm,-,N/A,,Clear,0,2013-10-01 06:53:00
1:53 AM,37.9,36.0,93,29.86,10.0,Calm,Calm,-,N/A,,Clear,0,2013-10-01 07:53:00
2:53 AM,35.1,34.0,96,29.87,10.0,Calm,Calm,-,N/A,,Clear,0,2013-10-01 08:53:00
3:53 AM,35.1,34.0,96,29.89,10.0,Calm,Calm,-,N/A,,Clear,0,2013-10-01 09:53:00
4:53 AM,35.1,34.0,96,29.91,10.0,Calm,Calm,-,N/A,,Clear,0,2013-10-01 10:53:00
5:53 AM,35.1,35.1,100,29.94,10.0,Calm,Calm,-,N/A,,Clear,0,2013-10-01 11:53:00
6:53 AM,37.9,37.0,97,29.94,10.0,SSE,3.5,-,N/A,,Clear,150,2013-10-01 12:53:00
7:53 AM,39.0,37.0,93,29.97,10.0,East,3.5,-,N/A,,Clear,90,2013-10-01 13:53:00
8:53 AM,45.0,41.0,86,29.95,10.0,SE,4.6,-,N/A,,Clear,130,2013-10-01 14:53:00
9:53 AM,55.0,41.0,59,29.95,10.0,East,4.6,-,N/A,,Clear,90,2013-10-01 15:53:00
10:53 AM,62.1,37.0,39,29.93,10.0,SW,15.0,-,N/A,,Clear,220,2013-10-01 16:53:00
11:53 AM,66.0,37.0,34,29.89,10.0,SSW,16.1,24.2,N/A,,Clear,210,2013-10-01 17:53:00
12:53 PM,68.0,33.1,27,29.88,10.0,SW,19.6,29.9,N/A,,Clear,220,2013-10-01 18:53:00
1:53 PM,71.1,32.0,24,29.85,10.0,WSW,24.2,32.2,N/A,,Clear,240,2013-10-01 19:53:00
2:53 PM,72.0,33.1,24,29.84,10.0,SW,25.3,29.9,N/A,,Clear,230,2013-10-01 20:53:00
3:53 PM,72.0,32.0,23,29.82,10.0,SW,20.7,29.9,N/A,,Clear,230,2013-10-01 21:53:00
4:53 PM,72.0,32.0,23,29.80,10.0,SW,13.8,26.5,N/A,,Clear,230,2013-10-01 22:53:00
5:53 PM,70.0,30.9,24,29.80,10.0,WSW,11.5,20.7,N/A,,Clear,250,2013-10-01 23:53:00
6:53 PM,60.1,33.1,36,29.83,10.0,West,4.6,-,N/A,,Clear,260,2013-10-02 00:53:00
7:53 PM,55.9,34.0,44,29.85,10.0,Calm,Calm,-,N/A,,Mostly Cloudy,0,2013-10-02 01:53:00
8:53 PM,52.0,37.0,57,29.84,10.0,Calm,Calm,-,N/A,,Scattered Clouds,0,2013-10-02 02:53:00
9:53 PM,46.9,37.0,68,29.83,10.0,West,3.5,-,N/A,,Partly Cloudy,270,2013-10-02 03:53:00
10:53 PM,52.0,37.0,57,29.81,10.0,WSW,6.9,-,N/A,,Overcast,240,2013-10-02 04:53:00
11:53 PM,48.9,36.0,61,29.78,10.0,SSW,9.2,-,N/A,,Clear,210,2013-10-02 05:53:00